Eagle, AK

8:10 PM AKDT on June 25, 2017 (GMT -0800)
Eagle

Weather History for PAEG - October, 2013

Change the Weather History Date:

Friday, October 4, 2013

  Actual Average (PABN) Record (PABN)
Temperature  
Mean Temperature 36 °F -  
Max Temperature 43 °F 33 °F 51 °F (2001)
Min Temperature 30 °F 22 °F 14 °F (1998)
Degree Days  
Heating Degree Days 29    
Moisture  
Dew Point 31 °F    
Average Humidity 80    
Maximum Humidity 89    
Minimum Humidity 70    
Precipitation  
Precipitation 0.00 in - - ()
Sea Level Pressure  
Sea Level Pressure 29.69 in    
Wind  
Wind Speed 0 mph (West)    
Max Wind Speed 5 mph    
Max Gust Speed -    
Visibility 10 miles    
Events      
Averages and records for this station are not official NWS values.
T = Trace of Precipitation, MM = Missing Value Source: NWS Daily Summary

Daily Weather History Graph

Daily Weather History Graph

Search for Another Location

Airport or City:

Trip Planner

Search our weather history database for the weather conditions in past years. The results will help you decide how hot, cold, wet, or windy it might be!

Date:

Astronomy

Oct. 04, 2013 Rise Set
Actual Time 7:44 AM AKDT 6:40 PM AKDT
Civil Twilight 6:55 AM AKDT 7:28 PM AKDT
Nautical Twilight 5:58 AM AKDT 8:25 PM AKDT
Astronomical Twilight 4:57 AM AKDT 9:26 PM AKDT
Moon 7:37 AM AKDT (10/4) 6:10 PM AKDT (10/4)
Length of Visible Light 12h 33m
Length of Day
10h 55m
Waning Crescent, 0% of the Moon is Illuminated
Oct 4
Waning Crescent
Oct 4
New
Oct 11
First Quarter
Oct 18
Full
Oct 26
Last Quarter

Hourly Weather History & Observations

Time (AKDT) Temp. Windchill Dew Point Humidity Pressure Visibility Wind Dir Wind Speed Gust Speed Precip Events Conditions
12:53 AM 30.0 °F - 27.0 °F 88% 29.64 in 10.0 mi Calm Calm - N/A   Scattered Clouds
1:53 AM 30.0 °F - 27.0 °F 88% 29.64 in 10.0 mi Calm Calm - N/A   Mostly Cloudy
2:53 AM 30.9 °F - 28.0 °F 89% 29.64 in 10.0 mi Calm Calm - N/A   Overcast
3:53 AM 32.0 °F - 28.9 °F 88% 29.64 in 10.0 mi Calm Calm - N/A   Overcast
4:53 AM 32.0 °F - 28.9 °F 88% 29.64 in 10.0 mi Calm Calm - N/A   Overcast
5:53 AM 33.1 °F - 28.9 °F 85% 29.63 in 10.0 mi Calm Calm - N/A   Overcast
6:53 AM 33.1 °F - 28.9 °F 85% 29.64 in 10.0 mi Calm Calm - N/A   Overcast
7:53 AM 32.0 °F - 28.9 °F 88% 29.65 in 10.0 mi Calm Calm - N/A   Overcast
8:53 AM 33.1 °F - 30.0 °F 89% 29.65 in 10.0 mi Calm Calm - N/A   Overcast
9:53 AM 37.0 °F - 32.0 °F 82% 29.66 in 10.0 mi Calm Calm - N/A   Overcast
10:53 AM 37.9 °F - 32.0 °F 79% 29.67 in 10.0 mi Calm Calm - N/A   Overcast
11:53 AM 39.0 °F - 32.0 °F 76% 29.68 in 10.0 mi Calm Calm - N/A   Overcast
12:53 PM 41.0 °F - 33.1 °F 73% 29.68 in 10.0 mi Calm Calm - N/A   Overcast
1:53 PM 41.0 °F - 33.1 °F 73% 29.69 in 10.0 mi Calm Calm - N/A   Overcast
2:53 PM 42.1 °F - 33.1 °F 70% 29.69 in 10.0 mi Calm Calm - N/A   Overcast
3:53 PM 42.1 °F - 33.1 °F 70% 29.70 in 10.0 mi Calm Calm - N/A   Overcast
4:53 PM 42.1 °F - 33.1 °F 70% 29.71 in 10.0 mi Calm Calm - 0.00 in   Overcast
5:53 PM 41.0 °F - 33.1 °F 73% 29.72 in 10.0 mi Calm Calm - N/A   Overcast
6:53 PM 39.0 °F - 32.0 °F 76% 29.73 in 10.0 mi Calm Calm - N/A   Overcast
7:01 PM 37.4 °F - 32.0 °F 81% 29.70 in 10.0 mi Calm Calm - N/A   Overcast
7:53 PM 39.0 °F - 30.9 °F 73% 29.75 in 10.0 mi Calm Calm - N/A   Overcast
8:53 PM 37.9 °F 34.4 °F 30.0 °F 73% 29.76 in 10.0 mi West 4.6 mph - N/A   Overcast
9:53 PM 37.0 °F 33.3 °F 30.0 °F 76% 29.78 in 10.0 mi West 4.6 mph - N/A   Overcast
10:53 PM 37.0 °F - 30.0 °F 76% 29.79 in 10.0 mi Calm Calm - N/A   Overcast
11:53 PM 36.0 °F - 30.0 °F 79% 29.80 in 10.0 mi Calm Calm - N/A   Overcast